EW9826 Weather Reports


Display with metric or nautical units.
time (UTC)temp
F
wind
direction
speed
MPH
gust
MPH
rain 1hr
in
rain 24hr
in
rain mn
in
humidity
%
barometer
mb
20200403104518 47 301 9.0 13.0 0.00 0.00 0.00 74 1016.3
20200403104018 47 324 6.0 20.0 0.00 0.00 0.00 75 1016.3
20200403102516 48 300 11.0 20.0 0.00 0.00 0.00 73 1016.3
20200403102018 48 275 9.0 20.0 0.00 0.00 0.00 71 1016.2
20200403100017 47 290 10.0 16.0 0.00 0.00 0.00 70 1016.1
20200403095018 48 296 5.0 15.0 0.00 0.00 0.00 73 1015.9
20200403094020 47 296 8.0 16.0 0.00 0.00 0.00 75 1015.8
20200403093517 47 302 10.0 16.0 0.00 0.00 0.00 75 1015.8
20200403092517 47 294 6.0 15.0 0.00 0.00 0.00 77 1015.7
20200403092018 47 297 9.0 14.0 0.00 0.00 0.00 77 1015.5
20200403091018 47 299 6.0 14.0 0.00 0.00 0.00 77 1015.3
20200403090017 47 272 9.0 20.0 0.00 0.00 0.00 76 1015.3
20200403085517 48 297 7.0 16.0 0.00 0.00 0.00 77 1015.3
20200403085017 47 293 8.0 17.0 0.00 0.00 0.00 77 1015.2
20200403084518 47 289 7.0 15.0 0.00 0.00 0.00 77 1015.2
20200403084017 47 299 8.0 12.0 0.00 0.00 0.00 80 1015.2
20200403083017 47 297 7.0 13.0 0.00 0.00 0.00 81 1014.9
20200403082517 47 294 9.0 17.0 0.00 0.00 0.00 81 1014.8
20200403081017 47 285 9.0 14.0 0.00 0.00 0.00 81 1014.7
20200403080017 47 303 11.0 17.0 0.00 0.00 0.00 82 1014.7
20200403075017 47 295 7.0 13.0 0.00 0.00 0.00 82 1014.4
20200403074517 47 302 6.0 15.0 0.00 0.00 0.00 83 1014.3
20200403074017 47 281 4.0 12.0 0.00 0.00 0.00 83 1014.2
20200403073517 47 276 5.0 9.0 0.00 0.00 0.00 83 1014.2
20200403073017 46 294 6.0 12.0 0.00 0.00 0.00 84 1014.2
20200403072017 46 297 6.0 13.0 0.00 0.00 0.00 84 1014.1
20200403070017 46 296 6.0 9.0 0.00 0.00 0.00 85 1013.8
20200403065517 46 298 5.0 9.0 0.00 0.00 0.00 86 1013.8
20200403064517 46 274 5.0 12.0 0.00 0.00 0.00 86 1013.7
20200403063517 46 298 5.0 9.0 0.00 0.00 0.00 87 1013.7
20200403062516 46 284 3.0 8.0 0.00 0.00 0.00 87 1013.7
20200403062016 46 281 3.0 7.0 0.00 0.00 0.00 87 1013.6
20200403061516 46 298 4.0 7.0 0.00 0.00 0.00 87 1013.6
20200403061016 46 306 3.0 9.0 0.00 0.00 0.00 87 1013.4
20200403055518 46 297 5.0 8.0 0.00 0.00 0.00 87 1013.2
20200403054516 46 317 4.0 7.0 0.00 0.00 0.00 87 1013.2
20200403053517 46 300 4.0 7.0 0.00 0.00 0.00 87 1013.0
20200403053017 46 300 3.0 5.0 0.00 0.00 0.00 87 1012.9
20200403052516 46 308 2.0 5.0 0.00 0.00 0.00 87 1012.7
20200403052016 46 311 3.0 6.0 0.00 0.00 0.00 87 1012.7
20200403051517 46 312 3.0 6.0 0.00 0.00 0.00 86 1012.7
20200403051017 46 312 4.0 8.0 0.00 0.00 0.00 86 1012.7
20200403050017 46 304 6.0 12.0 0.00 0.00 0.00 86 1012.7
20200403045516 46 315 4.0 7.0 0.00 0.00 0.00 86 1012.7
20200403045017 46 305 5.0 8.0 0.00 0.00 0.00 86 1012.7
20200403044016 46 289 5.0 6.0 0.00 0.00 0.00 86 1012.6
20200403043517 46 305 5.0 10.0 0.00 0.00 0.00 86 1012.6
20200403043017 46 304 6.0 9.0 0.00 0.00 0.00 86 1012.4
20200403041516 46 294 5.0 9.0 0.00 0.00 0.00 86 1012.2
20200403041017 46 308 6.0 10.0 0.00 0.00 0.00 87 1012.2
20200403040016 46 311 3.0 10.0 0.00 0.00 0.00 87 1012.2
20200403035516 46 301 4.0 7.0 0.00 0.00 0.00 87 1012.2
20200403034516 46 300 5.0 9.0 0.00 0.00 0.00 87 1012.2
20200403034016 46 306 5.0 8.0 0.00 0.00 0.00 86 1012.1
20200403033517 47 301 6.0 10.0 0.00 0.00 0.00 86 1012.1
20200403033016 47 291 5.0 9.0 0.00 0.00 0.00 86 1011.9
20200403032517 47 301 5.0 10.0 0.00 0.00 0.00 86 1012.0
20200403032016 47 298 6.0 9.0 0.00 0.00 0.00 86 1011.9
20200403031516 46 305 6.0 10.0 0.00 0.00 0.00 86 1011.9
20200403031017 46 302 5.0 9.0 0.00 0.00 0.00 86 1011.7
20200403030017 47 300 5.0 10.0 0.00 0.00 0.00 86 1011.7
20200403025517 47 300 6.0 8.0 0.00 0.00 0.00 86 1011.7
20200403025016 47 301 5.0 10.0 0.00 0.00 0.00 86 1011.7
20200403024516 47 291 5.0 9.0 0.00 0.00 0.00 86 1011.7
20200403024016 47 299 5.0 8.0 0.00 0.00 0.00 86 1011.7
20200403023516 47 292 6.0 9.0 0.00 0.00 0.00 86 1011.7
20200403023016 47 296 6.0 10.0 0.00 0.00 0.00 86 1011.6
20200403022016 47 295 6.0 10.0 0.00 0.00 0.00 86 1011.6
20200403021516 47 292 6.0 12.0 0.00 0.00 0.00 86 1011.5
20200403020016 47 300 3.0 9.0 0.00 0.00 0.00 86 1011.4
20200403015516 47 279 4.0 10.0 0.00 0.00 0.00 86 1011.3
20200403015018 47 309 4.0 8.0 0.00 0.00 0.00 86 1011.3
20200403014515 47 287 4.0 8.0 0.00 0.00 0.00 85 1011.3
20200403014017 47 287 3.0 7.0 0.00 0.00 0.00 85 1011.2
20200403012515 47 307 3.0 7.0 0.00 0.00 0.00 86 1011.2
20200403012016 47 300 3.0 7.0 0.00 0.00 0.00 86 1011.1
20200403011016 47 284 3.0 8.0 0.00 0.00 0.00 86 1011.1
20200403010015 47 296 5.0 8.0 0.00 0.00 0.00 86 1011.2
20200403005516 47 292 6.0 9.0 0.00 0.00 0.00 86 1011.2
20200403004016 47 273 3.0 7.0 0.00 0.00 0.00 85 1011.2
20200403003516 47 274 5.0 8.0 0.00 0.00 0.00 85 1011.2
20200403003016 47 265 2.0 7.0 0.00 0.00 0.00 85 1011.2
20200403002516 47 282 4.0 6.0 0.00 0.00 0.00 85 1011.1
20200403002016 47 292 2.0 6.0 0.00 0.00 0.00 85 1011.1
20200403001516 47 288 3.0 6.0 0.00 0.00 0.00 84 1011.1
20200403000016 48 289 4.0 7.0 0.00 0.00 0.00 84 1011.1
20200402235516 48 275 3.0 6.0 0.00 0.00 0.00 84 1011.0
20200402235015 48 301 2.0 6.0 0.00 0.00 0.00 84 1010.9
20200402234516 48 285 3.0 8.0 0.00 0.00 0.00 84 1011.0
20200402234016 48 290 3.0 7.0 0.00 0.00 0.00 84 1011.0
20200402233016 48 282 3.0 7.0 0.00 0.00 0.00 84 1011.0
20200402232515 48 312 3.0 6.0 0.00 0.00 0.00 84 1011.1
20200402232016 48 298 3.0 8.0 0.00 0.00 0.00 85 1011.1
20200402231016 48 272 3.0 8.0 0.00 0.00 0.00 85 1011.1
20200402230017 49 290 5.0 8.0 0.00 0.00 0.00 85 1011.1
20200402225516 49 290 5.0 9.0 0.00 0.00 0.00 85 1011.1
20200402225016 49 265 3.0 10.0 0.00 0.00 0.00 85 1011.1
20200402224515 49 304 5.0 8.0 0.00 0.00 0.00 85 1011.1
20200402224016 49 286 3.0 7.0 0.00 0.00 0.00 85 1011.1
20200402223515 49 279 5.0 10.0 0.00 0.00 0.00 85 1011.0
20200402223016 49 276 5.0 12.0 0.00 0.00 0.00 85 1011.0
20200402222516 49 283 4.0 9.0 0.00 0.00 0.00 85 1011.0
20200402222015 49 299 5.0 9.0 0.00 0.00 0.00 85 1011.0
20200402221515 49 276 5.0 12.0 0.00 0.00 0.00 85 1011.0
20200402221016 49 286 6.0 12.0 0.00 0.00 0.00 85 1010.9
20200402220015 49 278 7.0 12.0 0.00 0.00 0.00 85 1010.7
20200402215515 49 264 5.0 9.0 0.00 0.00 0.00 85 1010.8
20200402215016 49 279 6.0 13.0 0.00 0.00 0.00 84 1010.7
20200402214515 49 286 7.0 12.0 0.00 0.00 0.00 84 1010.7
20200402214015 49 280 5.0 12.0 0.00 0.00 0.00 84 1010.7
20200402213516 49 275 6.0 12.0 0.00 0.00 0.00 84 1010.7
20200402212515 49 262 5.0 10.0 0.00 0.00 0.00 84 1010.7
20200402212015 49 272 5.0 9.0 0.00 0.00 0.00 84 1010.8
20200402211515 49 256 6.0 16.0 0.00 0.00 0.00 84 1010.7
20200402211015 49 259 7.0 14.0 0.00 0.00 0.00 84 1010.7
20200402205016 49 251 5.0 12.0 0.00 0.00 0.00 83 1010.6
20200402204516 49 253 9.0 15.0 0.00 0.00 0.00 83 1010.7
20200402203516 49 256 7.0 14.0 0.00 0.00 0.00 82 1010.8
20200402203016 49 251 7.0 13.0 0.00 0.00 0.00 82 1010.7
20200402202516 49 246 5.0 15.0 0.00 0.00 0.00 82 1010.8
20200402202015 49 243 7.0 14.0 0.00 0.00 0.00 82 1010.9
20200402201515 49 249 8.0 18.0 0.00 0.00 0.00 81 1010.9
20200402201015 49 248 8.0 18.0 0.00 0.00 0.00 81 1010.7
20200402195515 48 236 8.0 14.0 0.00 0.00 0.00 82 1010.8
20200402195015 48 240 6.0 12.0 0.00 0.00 0.00 82 1010.8
20200402194515 48 256 5.0 12.0 0.00 0.00 0.00 82 1010.7
20200402194015 48 262 6.0 12.0 0.00 0.00 0.00 83 1010.8
20200402192515 48 251 7.0 17.0 0.00 0.00 0.00 83 1010.8
20200402191515 48 242 7.0 12.0 0.00 0.00 0.00 83 1010.8
20200402191015 47 250 7.0 14.0 0.00 0.00 0.00 83 1010.8
20200402190015 47 244 7.0 12.0 0.00 0.00 0.00 84 1010.6
20200402185016 47 223 6.0 15.0 0.00 0.00 0.00 83 1010.6
20200402184016 48 243 8.0 15.0 0.00 0.00 0.00 81 1010.7
20200402183515 48 251 7.0 14.0 0.00 0.00 0.00 79 1010.7
20200402183015 48 236 10.0 16.0 0.00 0.00 0.00 78 1010.7
20200402182515 48 245 6.0 13.0 0.00 0.00 0.00 79 1010.6
20200402182015 48 230 6.0 13.0 0.00 0.00 0.00 78 1010.7
20200402181514 48 233 6.0 13.0 0.00 0.00 0.00 78 1010.7
20200402181015 48 242 7.0 13.0 0.00 0.00 0.00 78 1010.7
20200402180015 48 249 6.0 13.0 0.00 0.00 0.00 78 1011.0
20200402175515 48 268 6.0 14.0 0.00 0.00 0.00 78 1011.1
20200402175016 48 244 6.0 15.0 0.00 0.00 0.00 78 1011.1
20200402174516 48 256 8.0 14.0 0.00 0.00 0.00 77 1011.1
20200402174015 48 232 8.0 13.0 0.00 0.00 0.00 77 1011.1
20200402173514 48 248 6.0 15.0 0.00 0.00 0.00 77 1011.1
20200402172514 48 252 6.0 12.0 0.00 0.00 0.00 77 1011.1
20200402172015 48 238 8.0 16.0 0.00 0.00 0.00 76 1011.0
20200402171516 48 251 9.0 15.0 0.00 0.00 0.00 77 1011.0
20200402171015 48 257 7.0 17.0 0.00 0.00 0.00 77 1011.0
20200402165515 48 244 9.0 15.0 0.00 0.00 0.00 79 1011.0
20200402165015 48 245 10.0 18.0 0.00 0.00 0.00 77 1011.1
20200402164015 48 239 6.0 14.0 0.00 0.00 0.00 76 1010.9
20200402163514 49 234 8.0 18.0 0.00 0.00 0.00 76 1011.1
20200402163022 49 232 8.0 16.0 0.00 0.00 0.00 75 1011.1
20200402162515 49 251 9.0 16.0 0.00 0.00 0.00 74 1011.1
20200402161515 49 239 7.0 17.0 0.00 0.00 0.00 74 1011.1
20200402161014 49 250 7.0 14.0 0.00 0.00 0.00 74 1011.1
20200402160015 49 262 5.0 14.0 0.00 0.00 0.00 74 1011.1
20200402154514 50 235 5.0 12.0 0.00 0.00 0.00 74 1011.2
20200402154015 50 261 7.0 16.0 0.00 0.00 0.00 73 1011.2
20200402152514 51 245 9.0 13.0 0.00 0.00 0.00 73 1011.3
20200402152015 50 247 6.0 13.0 0.00 0.00 0.00 73 1011.2
20200402151514 50 245 5.0 15.0 0.00 0.00 0.00 72 1011.2
20200402151014 51 230 6.0 17.0 0.00 0.00 0.00 72 1011.2
20200402150014 51 264 9.0 21.0 0.00 0.00 0.00 70 1011.3
20200402145514 51 246 8.0 20.0 0.00 0.00 0.00 71 1011.4
20200402145014 51 259 7.0 16.0 0.00 0.00 0.00 71 1011.5
20200402144515 51 246 7.0 17.0 0.00 0.00 0.00 71 1011.6
20200402143014 51 254 9.0 16.0 0.00 0.00 0.00 68 1011.8
20200402141515 50 247 10.0 20.0 0.00 0.00 0.00 69 1011.8
20200402140015 49 254 8.0 15.0 0.00 0.00 0.00 69 1012.1
20200402135515 49 254 10.0 16.0 0.00 0.00 0.00 70 1012.2
20200402135014 49 253 12.0 21.0 0.00 0.00 0.00 70 1012.2
20200402134015 49 267 6.0 20.0 0.00 0.00 0.00 70 1012.2
20200402133515 48 255 8.0 22.0 0.00 0.00 0.00 70 1012.2
20200402133014 49 254 8.0 20.0 0.00 0.00 0.00 69 1012.2
20200402132014 49 252 7.0 20.0 0.00 0.00 0.00 69 1012.3
20200402131514 49 273 10.0 17.0 0.00 0.00 0.00 68 1012.3
20200402130015 48 272 9.0 17.0 0.00 0.00 0.00 68 1012.5
20200402125514 49 248 10.0 15.0 0.00 0.00 0.00 67 1012.6
20200402125014 49 253 9.0 17.0 0.00 0.00 0.00 67 1012.6
20200402124515 49 274 9.0 20.0 0.00 0.00 0.00 66 1012.6
20200402124014 49 252 7.0 21.0 0.00 0.00 0.00 66 1012.7
20200402123514 49 263 10.0 20.0 0.00 0.00 0.00 63 1012.7
20200402122014 49 262 10.0 18.0 0.00 0.00 0.00 64 1012.7
20200402121513 49 252 9.0 17.0 0.00 0.00 0.00 65 1012.8
20200402115514 49 265 13.0 20.0 0.00 0.00 0.00 63 1013.0
20200402115014 49 266 12.0 20.0 0.00 0.00 0.00 61 1013.1
20200402114515 49 256 10.0 17.0 0.00 0.00 0.00 61 1013.1
20200402114015 50 259 10.0 20.0 0.00 0.00 0.00 61 1013.1
20200402113014 50 286 9.0 18.0 0.00 0.00 0.00 58 1013.2
20200402112514 50 268 8.0 18.0 0.00 0.00 0.00 58 1013.2
20200402111514 51 251 10.0 18.0 0.00 0.00 0.00 55 1013.2
20200402111014 51 259 9.0 15.0 0.00 0.00 0.00 56 1013.2
20200402105514 51 251 10.0 17.0 0.00 0.00 0.00 55 1013.3